CW4549 Weather Reports


time (UTC)temp
F
wind
direction
speed
knots
gust
knots
rain 1hr
in
rain 24hr
in
rain mn
in
humidity
%
barometer
mb
20260505124516 59 180 0.9 4.3 0.00 0.09 0.09 100 1002.1
20260505123018 59 0.0 4.3 0.00 0.09 0.09 100 1002.5
20260505121516 59 0.0 2.6 0.00 0.09 0.09 100 1003.1
20260505120017 59 0.0 1.7 0.00 0.09 0.09 100 1003.1
20260505114516 58 0.0 0.9 0.00 0.09 0.09 100 1003.0
20260505113017 58 0.0 6.1 0.00 0.09 0.09 99 1002.8
20260505111517 58 0.0 1.7 0.00 0.09 0.09 99 1002.2
20260505101518 59 0.0 0.9 0.09 0.09 0.09 95 1003.1
20260505100018 60 0.0 2.6 0.05 0.05 0.05 92 1003.4
20260505094518 60 0.0 0.9 0.02 0.02 0.02 89 1003.4
20260505093036 62 0.0 0.9 0.01 0.01 0.01 82 1003.2
20260505091538 64 0.0 0.9 0.00 0.00 0.00 71 1002.5
20260505090016 65 0.0 1.7 0.00 0.00 0.00 62 1001.9
20260505084516 65 0.0 2.6 0.00 0.00 0.00 61 1001.5
20260505083038 65 0.0 2.6 0.00 0.00 0.00 61 1001.3
20260505081516 65 0.0 2.6 0.00 0.00 0.00 61 1001.0
20260505080036 65 0.0 1.7 0.00 0.00 0.00 60 1000.9
20260505074556 66 0.0 4.3 0.00 0.00 0.00 61 1001.0
20260505073038 66 0.0 4.3 0.00 0.00 0.00 58 1000.9
20260505071516 67 158 0.9 7.0 0.00 0.00 0.00 57 1000.4
20260505070016 67 180 1.7 8.7 0.00 0.00 0.00 57 1000.5
20260505064518 67 158 1.7 9.6 0.00 0.00 0.00 56 1000.5
20260505063018 68 158 2.6 10.4 0.00 0.00 0.00 55 1000.5
20260505061516 68 180 1.7 10.4 0.00 0.00 0.00 55 1000.5
20260505060017 68 158 0.9 9.6 0.00 0.00 0.00 55 1000.5
20260505054516 68 180 0.9 8.7 0.00 0.00 0.00 55 1000.2
20260505053018 69 180 2.6 12.2 0.00 0.00 0.00 54 1000.0
20260505051537 69 180 0.9 5.2 0.00 0.00 0.00 54 999.8
20260505041517 69 180 0.9 7.8 0.00 0.00 0.00 56 1000.5
20260505040016 69 158 1.7 8.7 0.00 0.00 0.00 56 1000.7
20260505034517 69 180 0.9 7.0 0.00 0.00 0.00 57 1000.7
20260505033017 69 0.0 7.0 0.00 0.00 0.00 57 1000.7
20260505031517 69 0.0 4.3 0.00 0.00 0.00 57 1000.5
20260505030019 69 0.0 4.3 0.00 0.00 0.00 57 1000.5
20260505024537 69 225 0.9 4.3 0.00 0.00 0.00 56 1000.3
20260505023101 69 180 0.9 6.1 0.00 0.00 0.00 56 1000.2
20260505021519 69 180 0.9 7.0 0.00 0.00 0.00 57 999.9
20260505020017 69 0.0 2.6 0.00 0.00 0.00 57 999.7
20260505014519 69 0.0 2.6 0.00 0.00 0.00 56 999.3
20260505013015 70 0.0 2.6 0.00 0.00 0.00 55 999.3
20260505011517 71 0.0 3.5 0.00 0.00 0.00 55 999.2
20260505010015 71 0.0 2.6 0.00 0.00 0.00 53 999.3
20260505004515 72 0.0 2.6 0.00 0.00 0.00 52 999.3
20260505003017 73 248 0.9 7.0 0.00 0.00 0.00 50 999.2
20260505001515 73 0.0 4.3 0.00 0.00 0.00 49 999.3
20260505000017 74 180 0.9 6.1 0.00 0.00 0.00 48 999.4
20260504234515 74 180 0.9 8.7 0.00 0.00 0.00 47 999.7
20260504233017 74 180 0.9 11.3 0.00 0.00 0.00 46 1000.0
20260504231516 75 180 0.9 8.7 0.00 0.00 0.00 43 1000.1
20260504230015 75 158 2.6 12.2 0.00 0.00 0.00 41 1000.3
20260504224535 76 158 2.6 13.0 0.00 0.00 0.00 41 1000.3
20260504223016 76 158 3.5 15.6 0.00 0.00 0.00 42 1000.3
20260504221516 76 180 1.7 9.6 0.00 0.00 0.00 46 1000.3
20260504220017 76 0.0 2.6 0.00 0.00 0.00 49 1000.3
20260504214537 75 0.0 3.5 0.00 0.00 0.00 51 1000.5
20260504213015 76 0.0 2.6 0.00 0.00 0.00 50 1000.7
20260504211517 76 158 0.9 9.6 0.00 0.00 0.00 48 1001.0
20260504210017 76 158 0.9 8.7 0.00 0.00 0.00 46 1001.1
20260504204536 76 0.0 9.6 0.00 0.00 0.00 46 1001.1
20260504203017 76 158 1.7 12.2 0.00 0.00 0.00 46 1001.2
20260504201517 75 158 0.9 7.0 0.00 0.00 0.00 49 1001.5
20260504200016 75 158 1.7 7.0 0.00 0.00 0.00 53 1001.7
20260504194516 75 158 0.9 6.1 0.00 0.00 0.00 50 1001.9
20260504193036 74 158 0.9 6.1 0.00 0.00 0.00 53 1002.1
20260504191515 73 135 0.9 10.4 0.00 0.00 0.00 56 1002.5
20260504190016 72 158 0.9 6.1 0.00 0.00 0.00 58 1002.5
20260504184516 71 0.0 7.0 0.00 0.00 0.00 60 1002.9
20260504183016 70 158 0.9 10.4 0.00 0.00 0.00 58 1002.8
20260504181516 70 158 1.7 9.6 0.00 0.00 0.00 58 1002.7
20260504180015 69 158 0.9 9.6 0.00 0.00 0.00 59 1002.5
20260504174516 70 158 2.6 10.4 0.00 0.00 0.00 56 1002.4
20260504173016 71 158 2.6 11.3 0.00 0.00 0.00 54 1002.2
20260504171519 71 158 1.7 10.4 0.00 0.00 0.00 57 1002.3